Location: Ashton River Estates
(39.1762°N, 77.0261°W)
Time: 23:12:25
(UTC+00:00)

USA 308 - Pass Details

Date: 29 October 2020
Orbit: 571 x 578 km, 54.0° (Epoch: 30 November)

Event Time Altitude Azimuth Distance (km) Brightness Sun altitude
Rises 23:31:55 0° 316° (NW) 2,785 7.0 -16.4°
Reaches altitude 10° 23:34:19 10° 325° (NW) 1,883 5.9 -16.9°
Maximum altitude 23:38:20 38° 34° (NE) 882 3.5 -17.6°
Enters shadow 23:39:03 35° 59° (ENE) 931 3.5 -17.8°
